FW5955 Weather Reports


time (UTC)temp
C
wind
direction
speed
KPH
gust
KPH
rain 1hr
cm
rain 24hr
cm
rain mn
cm
humidity
%
barometer
mb
20260508184524 14 259 16.1 29.0 0.00 0.05 0.03 50 1001.2
20260508183013 14 264 12.9 27.4 0.00 0.05 0.03 51 1001.2
20260508181513 13 256 17.7 27.4 0.00 0.05 0.03 52 1001.4
20260508180010 13 300 11.3 24.1 0.00 0.05 0.03 55 1001.4
20260508174509 13 243 14.5 25.7 0.00 0.20 0.03 57 1001.6
20260508173014 13 246 12.9 27.4 0.00 0.20 0.03 59 1001.5
20260508171514 13 226 12.9 22.5 0.00 0.20 0.03 60 1001.7
20260508170006 13 255 11.3 24.1 0.00 0.20 0.03 61 1001.7
20260508164506 13 243 17.7 29.0 0.00 0.76 0.03 65 1001.9
20260508163005 13 248 12.9 25.7 0.00 0.76 0.03 67 1001.9
20260508161509 13 255 14.5 25.7 0.00 0.76 0.03 63 1001.9
20260508160003 13 259 14.5 25.7 0.00 0.76 0.03 59 1002.0
20260508154602 13 254 9.7 20.9 0.00 1.32 0.03 68 1002.0
20260508153057 13 264 8.0 19.3 0.00 1.32 0.03 76 1002.1
20260508151554 12 253 8.0 17.7 0.00 1.32 0.03 83 1002.1
20260508150118 11 245 8.0 16.1 0.00 1.32 0.03 84 1002.3
20260508144555 10 207 4.8 11.3 0.00 1.32 0.03 88 1002.3
20260508143049 8 214 8.0 16.1 0.00 1.32 0.03 91 1002.4
20260508141552 8 252 9.7 22.5 0.00 1.32 0.03 91 1002.5
20260508140051 8 162 3.2 11.3 0.00 1.32 0.03 89 1002.5
20260508134540 8 158 8.0 16.1 0.00 1.35 0.03 92 1002.5
20260508133042 8 186 3.2 11.3 0.00 1.35 0.03 91 1002.6
20260508131537 9 202 4.8 9.7 0.00 1.35 0.03 94 1002.4
20260508130036 8 227 4.8 11.3 0.00 1.35 0.03 94 1002.5
20260508124534 7 161 3.2 6.4 0.00 1.40 0.03 94 1002.5
20260508123035 8 159 0.0 1.6 0.00 1.40 0.03 94 1002.4
20260508121534 8 192 0.0 6.4 0.00 1.40 0.03 94 1002.4
20260508120032 8 141 0.0 4.8 0.00 1.40 0.03 94 1002.4
20260508114535 8 231 4.8 9.7 0.00 1.55 0.03 93 1002.4
20260508113045 10 167 0.0 3.2 0.00 1.55 0.03 94 1002.5
20260508111526 8 233 1.6 4.8 0.00 1.55 0.03 94 1002.4
20260508110023 8 65 0.0 3.2 0.00 1.55 0.03 95 1002.1
20260508104523 8 71 0.0 3.2 0.03 1.63 0.03 95 1002.1
20260508103022 7 96 0.0 3.2 0.03 1.63 0.03 96 1001.9
20260508101531 7 18 0.0 3.2 0.03 1.63 0.03 96 1001.9
20260508100032 6 314 0.0 1.6 0.03 1.63 0.03 96 1001.7
20260508094521 5 23 0.0 1.6 0.00 1.75 0.00 96 1001.9
20260508093023 4 27 0.0 0.0 0.00 1.75 0.00 96 1001.7
20260508091520 4 27 0.0 1.6 0.00 1.75 0.00 96 1001.7
20260508090020 4 27 0.0 1.6 0.00 1.75 0.00 96 1001.7
20260508084518 5 27 0.0 1.6 0.00 1.78 0.00 96 1001.9
20260508083017 4 28 0.0 0.0 0.00 1.78 0.00 96 1001.6
20260508081517 5 27 0.0 1.6 0.00 1.78 0.00 96 1001.8
20260508080022 4 27 0.0 1.6 0.00 1.78 0.00 96 1001.8
20260508074517 4 30 0.0 3.2 0.00 1.83 0.00 96 1001.8
20260508073012 5 265 0.0 1.6 0.00 1.83 0.00 96 1001.7
20260508071512 5 265 0.0 1.6 0.00 1.83 0.00 96 1001.5
20260508070012 5 269 0.0 4.8 0.00 1.83 0.00 97 1001.7
20260508064538 5 3 0.0 0.0 0.00 1.83 0.00 96 1001.7
20260508063012 4 3 0.0 1.6 0.00 1.83 0.00 96 1001.6
20260508061508 5 336 0.0 1.6 0.00 1.83 0.00 96 1001.4
20260508060005 5 336 0.0 1.6 0.00 1.83 0.00 96 1001.9
20260508054503 5 60 0.0 0.0 0.00 1.83 0.00 96 1001.8
20260508053001 5 60 0.0 0.0 0.00 1.83 0.00 96 1001.8
20260508051602 6 60 0.0 1.6 0.00 1.83 0.00 96 1002.1
20260508050100 5 60 0.0 0.0 0.00 1.83 0.00 96 1002.2
20260508044556 5 60 0.0 0.0 0.00 1.83 0.00 95 1002.3
20260508043056 6 61 0.0 1.6 0.00 1.83 0.00 95 1002.5
20260508041550 8 272 0.0 1.6 0.00 1.83 0.00 96 1002.7
20260508040056 8 272 0.0 0.0 0.00 1.83 0.00 96 1002.5
20260508034548 8 272 0.0 1.6 0.00 1.83 0.00 96 1002.2
20260508033046 8 272 0.0 0.0 0.00 1.83 0.00 96 1002.1
20260508031551 8 272 0.0 1.6 0.00 1.83 0.00 96 1002.6
20260508030046 8 272 0.0 1.6 0.00 1.83 0.00 96 1002.5
20260508024541 8 272 0.0 1.6 0.00 1.83 1.83 96 1002.4
20260508023041 8 272 0.0 1.6 0.00 1.83 1.83 96 1002.5
20260508021542 8 269 0.0 1.6 0.00 1.83 1.83 96 1002.6
20260508020040 8 267 0.0 1.6 0.00 1.83 1.83 96 1002.6
20260508014539 8 264 0.0 4.8 0.00 1.83 1.83 96 1002.7
20260508013041 8 278 0.0 3.2 0.00 1.83 1.83 96 1002.6
20260508011544 9 288 0.0 1.6 0.00 1.83 1.83 96 1002.7
20260508010040 9 254 0.0 1.6 0.00 1.83 1.83 96 1002.6
20260508004540 9 283 0.0 3.2 0.00 1.83 1.83 96 1002.6
20260508003037 9 264 1.6 6.4 0.00 1.83 1.83 96 1002.3
20260508001538 10 274 0.0 3.2 0.00 1.83 1.83 96 1002.2
20260508000048 10 264 0.0 3.2 0.00 1.83 1.83 96 1001.6
20260507234543 10 268 0.0 3.2 0.00 1.83 1.83 96 1002.0
20260507233036 9 274 0.0 6.4 0.00 1.83 1.83 96 1002.0
20260507231537 9 249 1.6 8.0 0.00 1.83 1.83 96 1001.9
20260507230030 7 268 0.0 3.2 0.00 1.83 1.83 95 1001.6
20260507224529 7 111 0.0 0.0 0.00 1.83 1.83 95 1001.6
20260507223029 8 110 0.0 4.8 0.00 1.83 1.83 95 1001.7
20260507221527 8 256 3.2 8.0 0.00 1.83 1.83 95 1001.7
20260507220026 8 246 3.2 8.0 0.00 1.83 1.83 95 1001.8
20260507214529 8 285 3.2 11.3 0.00 1.83 1.83 95 1001.9
20260507213026 8 333 3.2 14.5 0.00 1.83 1.83 95 1001.8
20260507211533 8 262 4.8 12.9 0.00 1.83 1.83 95 1001.8
20260507210024 8 275 8.0 12.9 0.00 1.83 1.83 95 1002.0
20260507204522 8 250 8.0 19.3 0.00 1.83 1.83 95 1002.0
20260507203022 8 268 8.0 16.1 0.00 1.83 1.83 95 1002.0
20260507201512 8 266 8.0 14.5 0.00 1.83 1.83 96 1002.0
20260507200004 8 254 6.4 16.1 0.00 1.83 1.83 96 1002.0
20260507194504 7 226 8.0 19.3 0.00 1.83 1.83 95 1002.1
20260507193005 7 245 11.3 19.3 0.03 1.83 1.83 95 1002.3
20260507191504 7 262 9.7 24.1 0.03 1.83 1.83 96 1002.5
20260507190005 7 240 9.7 17.7 0.05 1.83 1.83 96 1002.3